Regional Weather Roundup
Issued by NWS Midland/Odessa, TX

Skip options and go directly to product.
Home | Oldest Version | Previous Version | Current Version | All | Graphics & Text | Save Text | Print | Product List | Glossary On

Skip product version selection by date and time.   
017
ASUS44 KMAF 210210
RWRMAF
MIDLAND AREA WEATHER ROUNDUP
NATIONAL WEATHER SERVICE MIDLAND TX
900 PM CDT MON OCT 20 2014

...IN SOUTHWEST TEXAS AND SOUTHEAST NEW MEXICO...

CITY           SKY/WX    TMP DP  RH WIND       PRES   REMARKS
ALPINE         MOCLDY    60  57  91 E5        30.18R
ANDREWS        FAIR      66  53  62 CALM      30.09R
ARTESIA        NOT AVBL
BIG SPRING     MOCLDY    69  52  54 E6        30.08R
CARLSBAD       CLOUDY    63  59  87 CALM      30.08R
DRYDEN           N/A     67  61  81 E5        30.03R
FORT STOCKTON  MOCLDY    64  60  87 S5        30.07R
GUAD PASS      CLOUDY    54  52  93 NE28      30.14R
HOBBS          CLOUDY    64  61  88 CALM      30.11R
MARFA          PTCLDY    55  54  94 NE8       30.13S
MIDLAND AIRPK  CLOUDY    72  51  48 SE6       30.07R
MIDLAND INTL   CLOUDY    70  50  49 E6        30.06R
ODESSA         CLOUDY    70  52  52 SE5       30.07R
PECOS          MOCLDY    64  62  94 CALM      30.05S FOG
PRESIDIO       FAIR      67  57  70 N14       30.00R
SEMINOLE       CLOUDY    65  53  64 CALM      30.10R
SNYDER         PTCLDY    68  53  59 SE6       30.08R
WINK           CLOUDY    67  65  93 CALM      30.05R
$$
...OTHER STATIONS IN TEXAS...

CITY           SKY/WX    TMP DP  RH WIND       PRES   REMARKS
ABILENE        CLEAR     67  54  63 SE5       30.06R
AMARILLO       MOCLDY    66  54  65 SE3       30.11R
AUSTIN         CLOUDY    65  60  84 E3        30.02R
BROWNSVILLE    PTCLDY    77  69  76 NE3       29.93R
CORPUS CHRISTI PTCLDY    75  70  84 E12       29.96S
DALLAS FTW     PTCLDY    70  59  68 SE7       30.03R
DEL RIO        CLOUDY    73  64  73 CALM      29.98R
EL PASO        CLOUDY    65  54  67 S9        30.06R
HOUSTON INT    PTCLDY    68  59  73 NE3       30.01R
LUBBOCK        PTCLDY    64  53  67 S8        30.09R
SAN ANGELO     PTCLDY    67  52  58 E6        30.04R
SAN ANTONIO    MOCLDY    75  59  57 E6        30.01R
WACO           CLEAR     68  60  75 E7        30.03R
WICHITA FALLS  NOT AVBL
$$
...OTHER LOCATIONS IN NEW MEXICO...

CITY           SKY/WX    TMP DP  RH WIND       PRES   REMARKS
ALAMAGORDO     NOT AVBL
ALBUQUERQUE    LGT RAIN  59  51  75 NE12      30.16R
CANNON AFB     MOCLDY    61  54  78 CALM      30.15R
CLOVIS         MOCLDY    61  50  67 N8        30.17R
HOLLOMAN AFB   MOCLDY    60  60 100 N2        30.08R
ROSWELL        LGT RAIN  59  56  89 SW15      30.11S
RUIDOSO        MOCLDY    52  48  87 E18       30.25R
SANTA FE       HVY RAIN  56  45  66 SW6       30.21R
TRUTH OR CONSE CLOUDY    57  54  89 N10       30.12R
TUCUMCARI      MOCLDY    63  52  67 SW8       30.11R
$$

USA.gov is the U.S. government's official web portal to all federal, state and local government web resources and services.